Weather History for Goldsboro, NC

Change the Weather History Date:

Monday, October 22, 2012

  Actual Average Record
Temperature  
Mean Temperature 57 °F -  
Max Temperature 73 °F 70 °F 83 °F (2007)
Min Temperature 41 °F 48 °F 41 °F (2012)
Degree Days  
Heating Degree Days 8    
Growing Degree Days 7 (Base 50)    
Moisture  
Dew Point 45 °F    
Average Humidity 70    
Maximum Humidity 94    
Minimum Humidity 33    
Precipitation  
Precipitation 0.00 in - - ()
Sea Level Pressure  
Sea Level Pressure 30.17 in    
Wind  
Wind Speed 1 mph (NW)    
Max Wind Speed 9 mph    
Max Gust Speed -    
Visibility 8 miles    
Events      
Averages and records for this station are not official NWS values.
T = Trace of Precipitation, MM = Missing Value Source: NWS Daily Summary

Daily Weather History Graph

Daily Weather History Graph

Search for Another Location

Airport:

Trip Planner

Search our weather history database for the weather conditions in past years. The results will help you decide how hot, cold, wet, or windy it might be!

Date:

Astronomy

Oct. 22, 2012 Rise Set
Actual Time 7:24 AM EDT 6:27 PM EDT
Civil Twilight 6:58 AM EDT 6:53 PM EDT
Nautical Twilight 6:28 AM EDT 7:22 PM EDT
Astronomical Twilight 5:59 AM EDT 7:52 PM EDT
Moon 2:20 PM EDT (10/22) 12:24 AM EDT (10/22)
Length of Visible Light 11h 54m
Length of Day
11h 02m
First Quarter, 56% of the Moon is Illuminated
Oct 22
First Quarter
Oct 29
Full
Nov 6
Last Quarter
Nov 13
New
Nov 20
First Quarter

Hourly Weather History & Observations

Time (EDT) Temp. Windchill Dew Point Humidity Pressure Visibility Wind Dir Wind Speed Gust Speed Precip Events Conditions
12:55 AM 44.6 °F - 41.9 °F 90% 30.14 in 4.0 mi Calm Calm - N/A   Clear
1:55 AM 45.7 °F - 42.6 °F 89% 30.15 in 5.0 mi Calm Calm - N/A   Clear
2:55 AM 45.7 °F - 44.1 °F 94% 30.15 in 10.0 mi Calm Calm - N/A   Clear
3:55 AM 44.8 °F - 42.1 °F 90% 30.15 in 4.0 mi Calm Calm - N/A   Clear
4:55 AM 43.3 °F - 41.7 °F 94% 30.16 in 10.0 mi Calm Calm - N/A   Clear
5:55 AM 41.9 °F - 40.1 °F 93% 30.17 in 10.0 mi Calm Calm - N/A   Clear
6:55 AM 41.9 °F - 39.9 °F 93% 30.19 in 10.0 mi Calm Calm - N/A   Clear
7:55 AM 42.4 °F 40.7 °F 40.5 °F 93% 30.21 in 10.0 mi West 3.5 mph - N/A   Clear
8:55 AM 49.8 °F - 45.9 °F 86% 30.22 in 10.0 mi Calm Calm - N/A   Clear
9:55 AM 57.9 °F - 45.7 °F 64% 30.23 in 10.0 mi Calm Calm - N/A   Clear
10:55 AM 63.5 °F - 45.1 °F 51% 30.23 in 10.0 mi West 4.6 mph - N/A   Clear
11:55 AM 66.9 °F - 44.2 °F 44% 30.22 in 10.0 mi Calm Calm - N/A   Clear
12:55 PM 69.1 °F - 45.0 °F 42% 30.20 in 10.0 mi Calm Calm - N/A   Clear
1:55 PM 71.2 °F - 45.5 °F 40% 30.17 in 10.0 mi West 9.2 mph - N/A   Clear
2:55 PM 71.6 °F - 43.9 °F 37% 30.16 in 10.0 mi Calm Calm - N/A   Clear
3:55 PM 73.2 °F - 42.6 °F 33% 30.14 in 7.0 mi NNW 3.5 mph - N/A   Clear
4:55 PM 73.2 °F - 44.1 °F 35% 30.14 in 10.0 mi NW 6.9 mph - N/A   Clear
5:55 PM 71.2 °F - 44.8 °F 39% 30.14 in 10.0 mi Calm Calm - N/A   Clear
6:55 PM 62.2 °F - 50.7 °F 66% 30.15 in 4.0 mi ENE 3.5 mph - N/A   Haze
6:58 PM 60.8 °F - 51.8 °F 72% 30.15 in 7.0 mi ENE 3.5 mph - N/A   Clear
7:55 PM 58.6 °F - 50.0 °F 73% 30.16 in 9.0 mi Calm Calm - N/A   Clear
8:55 PM 55.6 °F - 50.0 °F 81% 30.17 in 8.0 mi Calm Calm - N/A   Clear
9:55 PM 54.3 °F - 48.7 °F 81% 30.17 in 10.0 mi Calm Calm - N/A   Clear
10:55 PM 50.7 °F - 47.8 °F 90% 30.18 in 5.0 mi Calm Calm - N/A   Clear
11:55 PM 50.7 °F - 48.0 °F 90% 30.18 in 6.0 mi Calm Calm - N/A   Clear